Cape Byron Observation History
Time Wind Speed Temp Pressure Rel. Hum Rain
11/03:30am NW 5-6 kts 19.9°c 1015.0 hPa 91% 0.0mm
11/03:00am NNW 5-7 kts 20.8°c 1014.9 hPa 90% 0.0mm
11/02:30am NNW 6-9 kts 20.9°c 1015.3 hPa 89% 0.0mm
11/02:00am NNW 6-9 kts 20.9°c 1015.5 hPa 88% 0.0mm
11/01:30am N 7-10 kts 21.2°c 1015.6 hPa 88% 0.0mm
11/01:00am NNW 6-8 kts 21.2°c 1015.9 hPa 88% 0.0mm
11/12:30am NNW 7-9 kts 21.3°c 1015.9 hPa 88% 0.0mm
11/12:00am N 7-9 kts 21.4°c 1016.3 hPa 88% 0.0mm
Time Wind Speed Temp Pressure Rel. Hum Rain
10/11:30pm N 7-10 kts 21.9°c 1016.4 hPa 86% 0.0mm
10/11:00pm NNE 10-13 kts 22.8°c 1016.6 hPa 78% 0.0mm
10/10:30pm NNE 10-15 kts 22.8°c 1016.8 hPa 78% 0.0mm
10/10:00pm NNE 11-16 kts 22.9°c 1016.6 hPa 76% 0.0mm
10/09:30pm NNE 10-14 kts 22.9°c 1016.4 hPa 74% 0.0mm
10/09:00pm NNE 11-16 kts 23.1°c 1016.3 hPa 74% 0.0mm
10/08:30pm NNE 10-15 kts 23.1°c 1016.0 hPa 73% 0.0mm
10/08:00pm NNE 10-15 kts 23.2°c 1015.7 hPa 75% 0.0mm
10/07:30pm NE 13-18 kts 23.4°c 1015.2 hPa 72% 0.0mm
10/07:00pm NE 12-16 kts 23.8°c 1015.2 hPa 71% 0.0mm
10/06:30pm NE 14-19 kts 24.3°c 1014.5 hPa 70% 0.0mm
10/06:00pm NE 13-17 kts 24.8°c 1014.5 hPa 67% 0.0mm
10/05:30pm NE 17-21 kts 24.5°c 1014.1 hPa 68% 0.0mm
10/05:00pm NE 17-22 kts 24.9°c 1014.0 hPa 67% 0.0mm
10/04:30pm NE 14-19 kts 26.2°c 1014.3 hPa 65% 0.0mm
10/04:00pm NE 14-17 kts 26.0°c 1014.5 hPa 65% 0.0mm
10/03:30pm NE 16-19 kts 25.9°c 1014.6 hPa 64% 0.0mm
10/03:00pm NE 15-18 kts 27.3°c 1015.1 hPa 59% 0.0mm
10/02:30pm NE 15-17 kts 28.1°c 1015.3 hPa 58% 0.0mm
10/02:00pm NE 14-16 kts 28.3°c 1015.7 hPa 62% 0.0mm
10/01:30pm NE 10-13 kts 27.6°c 1016.1 hPa 64% 0.0mm
10/01:00pm NE 9-13 kts 27.2°c 1016.1 hPa 61% 0.0mm
10/12:30pm NE 8-9 kts 29.4°c 1016.1 hPa 64% 0.0mm
10/12:00pm NE 7-8 kts 28.0°c 1016.2 hPa 61% 0.0mm
10/11:30am ENE 6-7 kts 27.7°c 1016.6 hPa 62% 0.0mm
10/11:00am ENE 6-7 kts 27.4°c 1016.6 hPa 64% 0.0mm
10/10:30am NNE 5-7 kts 25.7°c 1016.9 hPa 64% 0.0mm
10/10:00am NNE 4-7 kts 25.3°c 1017.1 hPa 64% 0.0mm
10/09:30am NNE 2-4 kts 25.3°c 1017.2 hPa 70% 0.0mm
10/09:00am NNW 2-4 kts 23.8°c 1017.2 hPa 70% 0.0mm
10/08:30am WNW 3-5 kts 23.3°c 1017.0 hPa 77% 0.0mm
10/08:00am WNW 4-5 kts 22.0°c 1016.8 hPa 82% 0.0mm
10/07:30am NW 3-6 kts 21.5°c 1016.6 hPa 80% 0.0mm
10/07:00am WNW 5-6 kts 21.1°c 1016.4 hPa 84% 0.0mm
10/06:30am NNE 3-6 kts 21.0°c 1016.2 hPa 84% 0.0mm
10/06:00am WNW 6-7 kts 20.2°c 1016.1 hPa 87% 0.0mm
10/05:30am WNW 7-8 kts 20.1°c 1015.9 hPa 87% 0.0mm
10/05:00am NW 4-8 kts 21.1°c 1015.9 hPa 81% 0.0mm
10/04:30am NE 9-11 kts 21.7°c 1015.7 hPa 81% 0.0mm
10/04:00am NE 12-14 kts 21.8°c 1015.5 hPa 80% 0.0mm
10/03:30am ENE 13-16 kts 21.0°c 1015.5 hPa 81% 0.0mm
10/03:00am ENE 11-14 kts 21.2°c 1016.0 hPa 82% 0.0mm
10/02:30am ENE 12-15 kts 21.3°c 1016.6 hPa 82% 0.0mm
10/02:00am ENE 10-13 kts 21.4°c 1016.8 hPa 80% 0.0mm
10/01:30am ENE 12-13 kts 21.7°c 1017.4 hPa 78% 0.0mm
10/01:00am NE 9-12 kts 22.3°c 1018.0 hPa 79% 0.0mm
10/12:30am NE 12-14 kts 22.3°c 1018.2 hPa 77% 0.0mm
10/12:00am NE 9-12 kts 22.2°c 1018.1 hPa 78% 0.0mm
Time Wind Speed Temp Pressure Rel. Hum Rain
09/11:30pm NE 13-16 kts 22.2°c 1018.1 hPa 76% 0.0mm
09/11:00pm NE 17-19 kts 21.9°c 1017.9 hPa 76% 0.0mm
09/10:30pm NE 18-21 kts 22.0°c 1018.0 hPa 76% 0.0mm
09/10:00pm ENE 17-22 kts 22.0°c 1018.0 hPa 79% 0.0mm
09/09:30pm ENE 15-19 kts 21.9°c 1017.7 hPa 79% 0.0mm
09/09:00pm ENE 14-19 kts 21.7°c 1017.7 hPa 78% 0.0mm
09/08:30pm ENE 12-16 kts 21.6°c 1017.6 hPa 79% 0.0mm
09/08:00pm E 7-12 kts 21.9°c 1017.8 hPa 78% 0.0mm
09/07:30pm E 8-11 kts 22.5°c 1017.7 hPa 75% 0.0mm
09/07:00pm E 8-11 kts 23.5°c 1017.8 hPa 72% 0.0mm
09/06:30pm E 7-11 kts 24.2°c 1017.6 hPa 68% 0.0mm
09/06:00pm E 7-11 kts 26.5°c 1017.4 hPa 58% 0.0mm
09/05:30pm E 8-12 kts 27.4°c 1017.3 hPa 58% 0.0mm
09/05:00pm E 8-11 kts 28.4°c 1017.4 hPa 57% 0.0mm
09/04:30pm ENE 8-11 kts 28.3°c 1017.6 hPa 52% 0.0mm
09/04:00pm E 9-11 kts 29.7°c 1017.7 hPa 54% 0.0mm
09/03:30pm E 8-11 kts 28.5°c 1018.0 hPa 55% 0.0mm
09/03:00pm E 7-11 kts 26.6°c 1018.2 hPa 58% 0.0mm
09/02:30pm E 7-11 kts 27.0°c 1018.3 hPa 60% 0.0mm
09/02:00pm SE 7-11 kts 26.2°c 1018.5 hPa 63% 0.0mm
09/01:30pm E 8-11 kts 26.0°c 1018.8 hPa 60% 0.0mm
09/01:00pm ESE 7-13 kts 25.6°c 1019.0 hPa 64% 0.0mm
09/12:30pm E 8-11 kts 25.5°c 1019.2 hPa 64% 0.0mm
09/12:00pm E 8-11 kts 26.1°c 1019.4 hPa 61% 0.0mm
09/11:30am E 8-11 kts 25.9°c 1019.7 hPa 62% 0.0mm
09/11:00am E 8-11 kts 26.4°c 1019.6 hPa 58% 0.0mm
09/10:30am E 9-11 kts 26.3°c 1019.5 hPa 61% 0.0mm
09/10:00am E 9-11 kts 25.6°c 1019.6 hPa 63% 0.0mm
09/09:30am E 8-12 kts 24.6°c 1019.7 hPa 66% 0.0mm
09/09:00am E 7-11 kts 24.0°c 1019.7 hPa 65% 0.0mm
09/08:30am E 7-12 kts 24.1°c 1019.7 hPa 66% 0.0mm
09/08:00am E 7-12 kts 23.7°c 1019.6 hPa 69% 0.0mm
09/07:30am E 6-9 kts 22.1°c 1019.4 hPa 68% 0.0mm
09/07:00am E 8-12 kts 21.9°c 1019.2 hPa 73% 0.0mm
09/06:30am E 9-14 kts 21.1°c 1018.9 hPa 77% 0.0mm
09/06:00am E 8-11 kts 21.0°c 1019.0 hPa 75% 0.0mm
09/05:30am E 7-11 kts 20.8°c 1018.8 hPa 75% 0.0mm
09/05:00am ENE 8-13 kts 21.3°c 1018.7 hPa 76% 0.0mm
09/04:30am ENE 7-11 kts 21.4°c 1018.7 hPa 75% 0.0mm
09/04:00am ENE 7-11 kts 21.4°c 1018.8 hPa 72% 0.0mm
09/03:30am ENE 8-13 kts 21.3°c 1018.9 hPa 73% 0.0mm
09/03:00am ENE 8-12 kts 21.4°c 1019.0 hPa 74% 0.0mm
09/02:30am ENE 9-14 kts 21.2°c 1019.0 hPa 74% 0.0mm
09/02:00am E 10-13 kts 21.1°c 1019.5 hPa 75% 0.0mm
09/01:30am E 12-15 kts 21.2°c 1020.2 hPa 73% 0.0mm
09/01:00am E 9-14 kts 21.4°c 1020.6 hPa 72% 0.0mm
09/12:30am E 10-13 kts 21.4°c 1020.9 hPa 73% 0.0mm
09/12:00am E 9-12 kts 21.3°c 1021.4 hPa 71% 0.0mm